Weather History for Skagway, AK

Change the Weather History Date:

Saturday, August 18, 2012

  Actual Average Record
Temperature  
Mean Temperature 55 °F -  
Max Temperature 61 °F 61 °F 73 °F (1968)
Min Temperature 51 °F 48 °F 40 °F (1988)
Degree Days  
Heating Degree Days 10    
Growing Degree Days 5 (Base 50)    
Moisture  
Dew Point 51 °F    
Average Humidity 86    
Maximum Humidity 100    
Minimum Humidity 72    
Precipitation  
Precipitation 0.04 in - - ()
Sea Level Pressure  
Sea Level Pressure 29.92 in    
Wind  
Wind Speed 5 mph (SW)    
Max Wind Speed 21 mph    
Max Gust Speed 29 mph    
Visibility 9 miles    
Events Rain    
Averages and records for this station are not official NWS values.
T = Trace of Precipitation, MM = Missing Value Source: NWS Daily Summary

Daily Weather History Graph

Daily Weather History Graph

Search for Another Location

Airport:

Trip Planner

Search our weather history database for the weather conditions in past years. The results will help you decide how hot, cold, wet, or windy it might be!

Date:

Astronomy

Aug. 18, 2012 Rise Set
Actual Time 5:26 AM AKDT 8:41 PM AKDT
Civil Twilight 4:38 AM AKDT 9:29 PM AKDT
Nautical Twilight 3:29 AM AKDT 10:36 PM AKDT
Astronomical Twilight 1:37 AM AKDT 12:32 AM AKDT
Moon 7:19 AM AKDT (8/18) 8:16 PM AKDT (8/18)
Length of Visible Light 16h 51m
Length of Day
15h 14m
New Moon, 2% of the Moon is Illuminated
Aug 18
New Moon
Aug 24
First Quarter
Aug 31
Full
Sep 8
Last Quarter
Sep 15
New

Hourly Weather History & Observations

Time (AKDT) Temp. Dew Point Humidity Pressure Visibility Wind Dir Wind Speed Gust Speed Precip Events Conditions
12:18 AM 51.8 °F 51.8 °F 100% 29.85 in 1.2 mi Calm Calm - 0.00 in   Overcast
12:25 AM 53.6 °F 51.8 °F 94% 29.85 in 2.5 mi Calm Calm - 0.00 in   Overcast
12:35 AM 51.8 °F 51.8 °F 100% 29.85 in 1.2 mi Calm Calm - 0.00 in   Overcast
12:41 AM 51.8 °F 51.8 °F 100% 29.84 in 2.0 mi NW 4.6 mph - 0.00 in   Overcast
12:47 AM 53.6 °F 51.8 °F 94% 29.84 in 4.0 mi Calm Calm - 0.00 in   Overcast
12:53 AM 53.1 °F 52.0 °F 96% 29.84 in 7.0 mi Calm Calm - 0.01 in Rain Light Rain
1:53 AM 54.0 °F 53.1 °F 97% 29.85 in 10.0 mi ENE 4.6 mph - 0.00 in   Overcast
2:17 AM 55.4 °F 53.6 °F 94% 29.84 in 10.0 mi Variable 5.8 mph - N/A   Overcast
2:40 AM 55.4 °F 51.8 °F 88% 29.84 in 10.0 mi SSW 16.1 mph 25.3 mph 0.01 in   Mostly Cloudy
2:53 AM 57.0 °F 53.1 °F 87% 29.85 in 10.0 mi South 18.4 mph 28.8 mph 0.01 in   Overcast
3:53 AM 57.9 °F 52.0 °F 81% 29.87 in 10.0 mi South 9.2 mph 17.3 mph 0.02 in   Overcast
4:53 AM 57.0 °F 52.0 °F 83% 29.89 in 10.0 mi South 10.4 mph 19.6 mph N/A   Mostly Cloudy
5:53 AM 57.0 °F 52.0 °F 83% 29.91 in 10.0 mi SSW 11.5 mph 18.4 mph N/A   Overcast
6:53 AM 55.0 °F 52.0 °F 89% 29.93 in 10.0 mi Variable 3.5 mph - N/A   Mostly Cloudy
7:53 AM 55.9 °F 52.0 °F 87% 29.95 in 10.0 mi Calm Calm - N/A   Overcast
8:00 AM 55.4 °F 51.8 °F 88% 29.95 in 10.0 mi Calm Calm - N/A   Overcast
8:53 AM 57.0 °F 53.1 °F 87% 29.96 in 10.0 mi Calm Calm - N/A   Mostly Cloudy
9:53 AM 57.0 °F 52.0 °F 83% 29.96 in 10.0 mi Calm Calm - N/A   Clear
10:53 AM 57.0 °F 52.0 °F 83% 29.96 in 10.0 mi Calm Calm - N/A   Clear
11:53 AM 59.0 °F 52.0 °F 78% 29.98 in 10.0 mi Calm Calm - N/A   Partly Cloudy
12:53 PM 59.0 °F 51.1 °F 75% 29.97 in 10.0 mi WSW 5.8 mph - N/A   Clear
1:53 PM 57.9 °F 50.0 °F 75% 29.96 in 10.0 mi SSW 19.6 mph - N/A   Clear
2:53 PM 57.0 °F 50.0 °F 77% 29.97 in 10.0 mi SW 18.4 mph - N/A   Clear
3:53 PM 57.0 °F 50.0 °F 77% 29.96 in 10.0 mi SW 20.7 mph - N/A   Clear
4:53 PM 57.9 °F 51.1 °F 78% 29.96 in 10.0 mi SSW 19.6 mph - N/A   Clear
5:53 PM 57.9 °F 50.0 °F 75% 29.96 in 10.0 mi WSW 17.3 mph - N/A   Clear
6:53 PM 59.0 °F 50.0 °F 72% 29.96 in 10.0 mi WSW 13.8 mph - N/A   Clear
7:53 PM 57.0 °F 50.0 °F 77% 29.98 in 10.0 mi Calm Calm - N/A   Clear
8:53 PM 54.0 °F 50.0 °F 86% 29.99 in 10.0 mi Calm Calm - N/A   Scattered Clouds
9:53 PM 53.1 °F 50.0 °F 89% 30.00 in 10.0 mi Calm Calm - N/A   Scattered Clouds
10:53 PM 51.1 °F 48.9 °F 92% 30.01 in 10.0 mi Calm Calm - N/A   Partly Cloudy
11:53 PM 51.1 °F 48.9 °F 92% 30.01 in 10.0 mi Calm Calm - N/A   Partly Cloudy